WX4FC Weather Reports


Display with metric or nautical units.
time (UTC)temp
F
wind
direction
speed
MPH
gust
MPH
rain 1hr
in
rain 24hr
in
rain mn
in
humidity
%
barometer
mb
20181216202536 54 290 7.0 6.0 0.00 0.00 0.00
20181216192557 53 259 5.0 7.0 0.00 0.00 0.00
20181216191559 53 315 4.0 3.0 0.00 0.00 0.00
20181216185608 53 291 5.0 4.0 0.00 0.00 0.00
20181216184609 52 315 5.0 8.0 0.00 0.00 0.00
20181216182619 51 304 8.0 3.0 0.00 0.00 0.00
20181216181620 51 332 9.0 6.0 0.00 0.00 0.00
20181216174631 50 325 8.0 10.0 0.00 0.00 0.00
20181216172640 48 302 5.0 6.0 0.00 0.00 0.00
20181216165651 47 302 7.0 8.0 0.00 0.00 0.00
20181216163657 46 329 11.0 9.0 0.00 0.00 0.00
20181216162701 46 323 9.0 7.0 0.00 0.00 0.00
20181216161703 45 338 7.0 8.0 0.00 0.00 0.00
20181216160708 45 314 8.0 5.0 0.00 0.00 0.00
20181216154714 45 308 6.0 8.0 0.00 0.00 0.00
20181216152722 44 335 5.0 7.0 0.00 0.00 0.00
20181216151725 45 309 5.0 3.0 0.00 0.00 0.00
20181216150730 44 329 8.0 8.0 0.00 0.00 0.00
20181216145734 44 336 7.0 8.0 0.00 0.00 0.00
20181216144735 44 335 9.0 10.0 0.00 0.00 0.00
20181216142745 44 335 11.0 11.0 0.00 0.00 0.00
20181216141747 44 308 7.0 6.0 0.00 0.00 0.00
20181216134756 44 316 0.0 0.0 0.00 0.00 0.00
20181216133800 44 319 2.0 0.0 0.00 0.00 0.00
20181216132805 44 304 0.0 0.0 0.00 0.00 0.00
20181216130811 43 277 1.0 4.0 0.00 0.00 0.00
20181216125816 43 342 0.0 0.0 0.00 0.00 0.00
20181216124817 43 311 0.0 0.0 0.00 0.00 0.00
20181216123821 43 315 5.0 5.0 0.00 0.00 0.00
20181216122827 43 328 0.0 0.0 0.00 0.00 0.00
20181216121828 43 340 0.0 4.0 0.00 0.00 0.00
20181216120833 43 326 11.0 10.0 0.00 0.00 0.00
20181216114839 44 291 6.0 0.0 0.00 0.00 0.00
20181216113843 44 280 5.0 4.0 0.00 0.00 0.00
20181216112848 44 328 5.0 3.0 0.00 0.00 0.00
20181216111849 44 326 6.0 0.0 0.00 0.00 0.00
20181216105859 44 278 4.0 5.0 0.00 0.00 0.00
20181216104900 44 288 4.0 7.0 0.00 0.00 0.00
20181216103905 44 316 8.0 7.0 0.00 0.00 0.00
20181216102910 44 318 4.0 4.0 0.00 0.00 0.00
20181216101911 44 288 3.0 3.0 0.00 0.00 0.00
20181216100916 44 302 2.0 6.0 0.00 0.00 0.00
20181216094922 44 321 5.0 3.0 0.00 0.00 0.00
20181216093926 44 319 5.0 0.0 0.00 0.00 0.00
20181216092931 44 264 1.0 0.0 0.00 0.00 0.00
20181216091933 44 312 7.0 7.0 0.00 0.00 0.00
20181216090937 45 329 5.0 9.0 0.00 0.00 0.00
20181216084943 45 309 3.0 0.0 0.00 0.00 0.00
20181216083948 45 319 2.0 8.0 0.00 0.00 0.00
20181216081954 45 266 2.0 0.0 0.00 0.00 0.00
20181216080957 45 291 3.0 0.0 0.00 0.00 0.00
20181216080002 45 336 0.0 0.0 0.00 0.00 0.00
20181216073014 45 297 10.0 4.0 0.00 0.00 0.00
20181216070023 45 298 2.0 5.0 0.00 0.00 0.00
20181216065026 45 315 1.0 3.0 0.00 0.00 0.00
20181216064031 45 298 1.0 0.0 0.00 0.00 0.00
20181216063035 45 293 4.0 4.0 0.00 0.00 0.00
20181216062037 46 305 0.0 0.0 0.00 0.00 0.00
20181216061040 46 273 0.0 0.0 0.00 0.00 0.00
20181216060045 46 285 2.0 0.0 0.00 0.00 0.00
20181216055047 46 288 4.0 0.0 0.00 0.00 0.00
20181216053055 46 300 5.0 4.0 0.00 0.00 0.00
20181216052057 46 280 0.0 0.0 0.00 0.00 0.00
20181216051103 46 277 0.0 0.0 0.00 0.00 0.00
20181216050107 46 301 1.0 0.0 0.00 0.00 0.00
20181216045109 46 318 3.0 0.0 0.00 0.00 0.00
20181216044113 46 284 0.0 3.0 0.00 0.00 0.00
20181216043118 46 301 0.0 6.0 0.00 0.00 0.00
20181216042120 46 293 0.0 0.0 0.00 0.00 0.00
20181216041124 46 309 0.0 3.0 0.00 0.00 0.00
20181216023200 45 295 3.0 0.0 0.00 0.00 0.00
20181216020212 45 267 5.0 3.0 0.00 0.00 0.00
20181215234301 46 273 0.0 0.0 0.00 0.00 0.00
20181215231310 46 288 5.0 5.0 0.00 0.00 0.00
20181215222327 46 274 6.0 7.0 0.00 0.00 0.00
20181215215339 46 288 6.0 5.0 0.00 0.00 0.00
20181215213348 46 259 9.0 7.0 0.00 0.00 0.00
20181215211354 46 301 6.0 6.0 0.00 0.00 0.00
20181215205401 46 274 6.0 4.0 0.00 0.00 0.00